Time,TemperatureF,DewpointF,PressureIn,WindDirection,WindDirectionDegrees,WindSpeedMPH,WindSpeedGustMPH,Humidity,HourlyPrecipIn,Conditions,Clouds,dailyrainin,SolarRadiationWatts/m^2,SoftwareType,DateUTC
2013-10-06 00:01:00,68.2,67.3,30.00,NE,37,0.0,0.0,97,0.00,,,0.01,0.0,meteohub,2013-10-06 04:01:00,
2013-10-06 00:03:00,68.2,67.3,30.00,NE,37,0.0,0.0,97,0.00,,,0.01,0.0,meteohub,2013-10-06 04:03:00,
2013-10-06 00:08:00,68.4,67.5,30.00,NE,37,0.0,0.0,97,0.00,,,0.00,0.0,meteohub,2013-10-06 04:08:00,
2013-10-06 00:13:00,68.4,67.5,29.99,NE,37,0.0,0.0,97,0.00,,,0.00,0.0,meteohub,2013-10-06 04:13:00,
2013-10-06 00:18:00,68.4,67.5,29.99,NE,37,0.0,0.0,97,0.00,,,0.00,0.0,meteohub,2013-10-06 04:18:00,
2013-10-06 00:23:00,68.4,67.5,29.99,NE,37,0.0,0.0,97,0.00,,,0.00,0.0,meteohub,2013-10-06 04:23:00,
2013-10-06 00:28:00,68.2,67.3,29.99,NE,37,0.0,0.0,97,0.00,,,0.00,0.0,meteohub,2013-10-06 04:28:00,
2013-10-06 00:33:00,68.2,67.3,29.99,NE,37,0.0,0.0,97,0.00,,,0.00,0.0,meteohub,2013-10-06 04:33:00,
2013-10-06 00:38:00,67.8,66.9,29.99,NE,37,0.0,0.0,97,0.00,,,0.00,0.0,meteohub,2013-10-06 04:38:00,
2013-10-06 00:43:00,67.8,66.9,29.99,NE,37,0.0,0.0,97,0.00,,,0.00,0.0,meteohub,2013-10-06 04:43:00,
2013-10-06 00:48:00,67.6,66.7,29.99,NE,37,0.0,0.0,97,0.00,,,0.00,0.0,meteohub,2013-10-06 04:48:00,
2013-10-06 00:53:00,67.8,66.9,29.99,NE,37,0.0,0.0,97,0.00,,,0.00,0.0,meteohub,2013-10-06 04:53:00,
2013-10-06 00:58:00,67.8,66.9,29.99,NE,37,0.0,0.0,97,0.00,,,0.00,0.0,meteohub,2013-10-06 04:58:00,
2013-10-06 01:04:00,67.8,66.9,29.99,NE,37,0.0,0.0,97,0.00,,,0.00,0.0,meteohub,2013-10-06 05:04:00,
2013-10-06 01:09:00,67.8,66.9,29.98,NE,37,0.0,0.0,97,0.00,,,0.00,0.0,meteohub,2013-10-06 05:09:00,
2013-10-06 01:14:00,67.8,66.9,29.98,NE,37,0.0,0.0,97,0.00,,,0.00,0.0,meteohub,2013-10-06 05:14:00,
2013-10-06 01:19:00,67.6,66.7,29.98,NE,37,0.0,0.0,97,0.00,,,0.00,0.0,meteohub,2013-10-06 05:19:00,
2013-10-06 01:24:00,67.5,66.6,29.98,NE,37,0.0,0.0,97,0.00,,,0.00,0.0,meteohub,2013-10-06 05:24:00,
2013-10-06 01:29:00,67.5,66.6,29.98,NE,37,0.0,0.0,97,0.00,,,0.00,0.0,meteohub,2013-10-06 05:29:00,
2013-10-06 01:34:00,67.5,66.6,29.98,NE,37,0.0,0.0,97,0.00,,,0.00,0.0,meteohub,2013-10-06 05:34:00,
2013-10-06 01:39:00,67.3,66.4,29.97,NE,37,0.0,0.0,97,0.00,,,0.00,0.0,meteohub,2013-10-06 05:39:00,
2013-10-06 01:44:00,67.3,66.4,29.97,NE,37,0.0,0.0,97,0.00,,,0.00,0.0,meteohub,2013-10-06 05:44:00,
2013-10-06 01:49:00,67.1,66.2,29.97,NE,37,0.0,0.0,97,0.00,,,0.00,0.0,meteohub,2013-10-06 05:49:00,
2013-10-06 01:54:00,66.9,66.0,29.97,NE,37,0.0,0.0,97,0.00,,,0.00,0.0,meteohub,2013-10-06 05:54:00,
2013-10-06 01:59:00,66.9,66.0,29.97,NE,37,0.0,0.0,97,0.00,,,0.00,0.0,meteohub,2013-10-06 05:59:00,
2013-10-06 02:04:00,66.9,66.0,29.97,NE,37,0.0,0.0,97,0.00,,,0.00,0.0,meteohub,2013-10-06 06:04:00,
2013-10-06 02:09:00,66.9,66.0,29.97,NE,37,0.0,0.0,97,0.00,,,0.00,0.0,meteohub,2013-10-06 06:09:00,
2013-10-06 02:14:00,66.9,66.0,29.96,NE,37,0.0,0.0,97,0.00,,,0.00,0.0,meteohub,2013-10-06 06:14:00,
2013-10-06 02:19:00,66.9,66.0,29.96,NE,37,0.0,0.0,97,0.00,,,0.00,0.0,meteohub,2013-10-06 06:19:00,
2013-10-06 02:24:00,66.9,66.0,29.96,NE,37,0.0,0.0,97,0.00,,,0.00,0.0,meteohub,2013-10-06 06:24:00,
2013-10-06 02:29:00,66.9,66.0,29.96,NE,37,0.0,0.0,97,0.00,,,0.00,0.0,meteohub,2013-10-06 06:29:00,
2013-10-06 02:34:00,66.9,66.0,29.96,NE,37,0.0,0.0,97,0.00,,,0.00,0.0,meteohub,2013-10-06 06:34:00,
2013-10-06 02:39:00,66.9,66.0,29.95,NE,37,0.0,0.0,97,0.00,,,0.00,0.0,meteohub,2013-10-06 06:39:00,
2013-10-06 02:44:00,66.9,66.0,29.95,NE,37,0.0,0.0,97,0.00,,,0.00,0.0,meteohub,2013-10-06 06:44:00,
2013-10-06 02:49:00,66.9,66.0,29.95,NE,37,0.0,0.0,97,0.00,,,0.00,0.0,meteohub,2013-10-06 06:49:00,
2013-10-06 02:54:00,66.9,66.0,29.95,NE,37,0.0,0.0,97,0.00,,,0.00,0.0,meteohub,2013-10-06 06:54:00,
2013-10-06 02:59:00,66.9,66.0,29.94,NE,37,0.0,0.0,97,0.00,,,0.00,0.0,meteohub,2013-10-06 06:59:00,
2013-10-06 03:04:00,66.7,65.8,29.95,NE,37,0.0,0.0,97,0.00,,,0.00,0.0,meteohub,2013-10-06 07:04:00,
2013-10-06 03:09:00,66.7,65.8,29.95,NE,37,0.0,0.0,97,0.00,,,0.00,0.0,meteohub,2013-10-06 07:09:00,
2013-10-06 03:14:00,66.9,66.0,29.95,NE,37,0.0,0.0,97,0.00,,,0.00,0.0,meteohub,2013-10-06 07:14:00,
2013-10-06 03:19:00,66.9,66.0,29.95,NE,37,0.0,0.0,97,0.00,,,0.00,0.0,meteohub,2013-10-06 07:19:00,
2013-10-06 03:24:00,66.9,66.0,29.95,NE,37,0.0,0.0,97,0.00,,,0.00,0.0,meteohub,2013-10-06 07:24:00,
2013-10-06 03:29:00,66.9,66.4,29.95,NE,37,0.0,0.0,98,0.00,,,0.00,0.0,meteohub,2013-10-06 07:29:00,
2013-10-06 03:34:00,66.9,66.4,29.94,NE,37,0.0,0.0,98,0.00,,,0.00,0.0,meteohub,2013-10-06 07:34:00,
2013-10-06 03:39:00,66.9,66.4,29.94,NE,37,0.0,0.0,98,0.00,,,0.00,0.0,meteohub,2013-10-06 07:39:00,
2013-10-06 03:44:00,66.9,66.4,29.94,NE,37,0.0,0.0,98,0.00,,,0.00,0.0,meteohub,2013-10-06 07:44:00,
2013-10-06 03:49:00,66.9,66.4,29.94,NE,37,0.0,0.0,98,0.00,,,0.00,0.0,meteohub,2013-10-06 07:49:00,
2013-10-06 03:54:00,67.1,66.6,29.94,NE,37,0.0,0.0,98,0.00,,,0.00,0.0,meteohub,2013-10-06 07:54:00,
2013-10-06 03:59:00,66.9,66.4,29.94,NE,37,0.0,0.0,98,0.00,,,0.00,0.0,meteohub,2013-10-06 07:59:00,
2013-10-06 04:04:00,66.9,66.4,29.94,NE,37,0.0,0.0,98,0.00,,,0.00,0.0,meteohub,2013-10-06 08:04:00,
2013-10-06 04:09:00,67.1,66.6,29.94,NE,37,0.0,0.0,98,0.00,,,0.00,0.0,meteohub,2013-10-06 08:09:00,
2013-10-06 04:14:00,67.1,66.6,29.94,NE,37,0.0,0.0,98,0.00,,,0.00,0.0,meteohub,2013-10-06 08:14:00,
2013-10-06 04:19:00,67.1,66.6,29.94,NE,37,0.0,0.0,98,0.00,,,0.00,0.0,meteohub,2013-10-06 08:19:00,
2013-10-06 04:24:00,67.3,66.7,29.94,NE,37,0.0,0.0,98,0.00,,,0.00,0.0,meteohub,2013-10-06 08:24:00,
2013-10-06 04:29:00,67.3,66.7,29.94,NE,37,0.0,0.0,98,0.00,,,0.00,0.0,meteohub,2013-10-06 08:29:00,
2013-10-06 04:34:00,66.9,66.4,29.94,NE,37,0.0,0.0,98,0.00,,,0.00,0.0,meteohub,2013-10-06 08:34:00,
2013-10-06 04:39:00,66.9,66.4,29.94,NE,37,0.0,0.0,98,0.00,,,0.00,0.0,meteohub,2013-10-06 08:39:00,
2013-10-06 04:44:00,67.1,66.6,29.94,NE,37,0.0,0.0,98,0.00,,,0.00,0.0,meteohub,2013-10-06 08:44:00,
2013-10-06 04:49:00,67.3,66.7,29.94,NE,37,0.0,0.0,98,0.00,,,0.00,0.0,meteohub,2013-10-06 08:49:00,
2013-10-06 04:54:00,67.3,66.7,29.93,NE,37,0.0,0.0,98,0.00,,,0.00,0.0,meteohub,2013-10-06 08:54:00,
2013-10-06 04:59:00,67.3,66.7,29.93,NE,37,0.0,0.0,98,0.00,,,0.00,0.0,meteohub,2013-10-06 08:59:00,
2013-10-06 05:04:00,67.3,66.7,29.93,NE,37,0.0,0.0,98,0.00,,,0.00,0.0,meteohub,2013-10-06 09:04:00,
2013-10-06 05:09:00,67.3,66.7,29.93,NE,37,0.0,0.0,98,0.00,,,0.00,0.0,meteohub,2013-10-06 09:09:00,
2013-10-06 05:14:00,67.3,66.7,29.94,NE,37,0.0,0.0,98,0.00,,,0.00,0.0,meteohub,2013-10-06 09:14:00,
2013-10-06 05:19:00,67.3,66.7,29.94,NE,37,0.0,0.0,98,0.00,,,0.00,0.0,meteohub,2013-10-06 09:19:00,
2013-10-06 05:24:00,67.3,66.7,29.94,NE,37,0.0,0.0,98,0.00,,,0.00,0.0,meteohub,2013-10-06 09:24:00,
2013-10-06 05:29:00,67.5,66.9,29.94,NE,37,0.0,0.0,98,0.00,,,0.00,0.0,meteohub,2013-10-06 09:29:00,
2013-10-06 05:34:00,67.5,66.9,29.93,NE,37,0.0,0.0,98,0.00,,,0.00,0.0,meteohub,2013-10-06 09:34:00,
2013-10-06 05:39:00,67.5,66.9,29.93,NE,37,0.0,0.0,98,0.00,,,0.00,0.0,meteohub,2013-10-06 09:39:00,
2013-10-06 05:44:00,67.6,67.1,29.93,NE,37,0.0,0.0,98,0.00,,,0.00,0.0,meteohub,2013-10-06 09:44:00,
2013-10-06 05:49:00,67.5,66.9,29.94,NE,37,0.0,0.0,98,0.00,,,0.00,0.0,meteohub,2013-10-06 09:49:00,
2013-10-06 05:54:00,67.5,66.9,29.94,NE,37,0.0,0.0,98,0.00,,,0.00,0.0,meteohub,2013-10-06 09:54:00,
2013-10-06 05:59:00,67.5,66.9,29.94,NE,37,0.0,0.0,98,0.00,,,0.00,0.0,meteohub,2013-10-06 09:59:00,
2013-10-06 06:04:00,67.5,66.9,29.94,NE,37,0.0,0.0,98,0.00,,,0.00,0.0,meteohub,2013-10-06 10:04:00,
2013-10-06 06:09:00,67.5,66.9,29.94,NE,37,0.0,0.0,98,0.00,,,0.00,0.0,meteohub,2013-10-06 10:09:00,
2013-10-06 06:14:00,67.5,66.9,29.94,NE,37,0.0,0.0,98,0.00,,,0.00,0.0,meteohub,2013-10-06 10:14:00,
2013-10-06 06:19:00,67.5,66.9,29.94,NE,37,0.0,0.0,98,0.00,,,0.00,0.0,meteohub,2013-10-06 10:19:00,
2013-10-06 06:24:00,67.5,66.9,29.94,NE,37,0.0,0.0,98,0.00,,,0.00,0.0,meteohub,2013-10-06 10:24:00,
2013-10-06 06:29:00,67.5,66.9,29.94,NE,37,0.0,0.0,98,0.00,,,0.00,0.0,meteohub,2013-10-06 10:29:00,
2013-10-06 06:34:00,67.5,66.9,29.94,NE,37,0.0,0.0,98,0.00,,,0.00,0.0,meteohub,2013-10-06 10:34:00,
2013-10-06 06:39:00,67.5,66.9,29.94,NE,37,0.0,0.0,98,0.00,,,0.00,0.0,meteohub,2013-10-06 10:39:00,
2013-10-06 06:44:00,67.3,66.7,29.94,NE,37,0.0,0.0,98,0.00,,,0.00,0.0,meteohub,2013-10-06 10:44:00,
2013-10-06 06:49:00,67.3,66.7,29.94,NE,37,0.0,0.0,98,0.00,,,0.00,0.0,meteohub,2013-10-06 10:49:00,
2013-10-06 06:54:00,67.3,66.7,29.94,NE,37,0.0,0.0,98,0.00,,,0.00,0.0,meteohub,2013-10-06 10:54:00,
2013-10-06 06:59:00,67.3,66.7,29.94,NE,37,0.0,0.0,98,0.00,,,0.00,0.0,meteohub,2013-10-06 10:59:00,
2013-10-06 07:04:00,67.3,66.7,29.94,NE,37,0.0,0.0,98,0.00,,,0.00,0.0,meteohub,2013-10-06 11:04:00,
2013-10-06 07:09:00,67.3,66.7,29.94,NE,37,0.0,0.0,98,0.00,,,0.00,0.0,meteohub,2013-10-06 11:09:00,
2013-10-06 07:14:00,67.3,66.7,29.94,NE,37,0.0,0.0,98,0.00,,,0.00,0.0,meteohub,2013-10-06 11:14:00,
2013-10-06 07:19:00,67.5,66.9,29.94,NE,37,0.0,0.0,98,0.00,,,0.00,0.0,meteohub,2013-10-06 11:19:00,
2013-10-06 07:24:00,67.5,66.9,29.94,NE,37,0.0,0.0,98,0.00,,,0.00,0.0,meteohub,2013-10-06 11:24:00,
2013-10-06 07:29:00,67.5,66.9,29.94,NE,37,0.0,0.0,98,0.00,,,0.00,5.0,meteohub,2013-10-06 11:29:00,
2013-10-06 07:34:00,67.6,67.1,29.94,NE,37,0.0,0.0,98,0.00,,,0.00,9.0,meteohub,2013-10-06 11:34:00,
2013-10-06 07:39:00,67.8,67.3,29.94,NE,37,0.0,0.0,98,0.00,,,0.00,14.0,meteohub,2013-10-06 11:39:00,
2013-10-06 07:44:00,67.8,67.3,29.94,NE,37,0.0,0.0,98,0.00,,,0.00,21.0,meteohub,2013-10-06 11:44:00,
2013-10-06 07:50:00,68.0,67.5,29.95,NE,37,0.0,0.0,98,0.00,,,0.00,26.0,meteohub,2013-10-06 11:50:00,
2013-10-06 07:55:00,68.4,67.8,29.95,NE,37,0.0,0.0,98,0.00,,,0.00,35.0,meteohub,2013-10-06 11:55:00,
2013-10-06 08:00:00,68.4,67.8,29.95,NE,37,0.0,0.0,98,0.00,,,0.00,42.0,meteohub,2013-10-06 12:00:00,
2013-10-06 08:05:00,68.5,68.0,29.95,NE,37,0.0,0.0,98,0.00,,,0.00,54.0,meteohub,2013-10-06 12:05:00,
2013-10-06 08:10:00,68.7,68.2,29.96,NE,37,0.0,0.0,98,0.00,,,0.00,65.0,meteohub,2013-10-06 12:10:00,
2013-10-06 08:15:00,69.1,68.5,29.96,NE,37,0.0,0.0,98,0.00,,,0.00,83.0,meteohub,2013-10-06 12:15:00,
2013-10-06 08:20:00,69.3,68.7,29.96,NE,37,0.0,0.0,98,0.00,,,0.00,90.0,meteohub,2013-10-06 12:20:00,
2013-10-06 08:25:00,69.6,69.1,29.96,NE,37,0.0,0.0,98,0.00,,,0.00,67.0,meteohub,2013-10-06 12:25:00,
2013-10-06 08:30:00,70.0,69.4,29.96,NE,37,0.0,0.0,98,0.00,,,0.00,47.0,meteohub,2013-10-06 12:30:00,
2013-10-06 08:35:00,70.2,69.6,29.96,NE,37,0.0,0.0,98,0.00,,,0.00,91.0,meteohub,2013-10-06 12:35:00,
2013-10-06 08:40:00,70.5,70.0,29.96,NE,37,0.0,0.0,98,0.00,,,0.00,127.0,meteohub,2013-10-06 12:40:00,
2013-10-06 08:45:00,70.9,70.3,29.96,NE,37,0.0,2.0,98,0.00,,,0.00,137.0,meteohub,2013-10-06 12:45:00,
2013-10-06 08:50:00,71.2,70.9,29.96,NE,37,0.0,2.0,99,0.00,,,0.00,151.0,meteohub,2013-10-06 12:50:00,
2013-10-06 08:55:00,71.6,71.1,29.96,NE,37,1.0,2.0,98,0.00,,,0.00,179.0,meteohub,2013-10-06 12:55:00,
2013-10-06 09:00:00,72.1,71.8,29.96,NE,37,0.0,2.0,99,0.00,,,0.00,174.0,meteohub,2013-10-06 13:00:00,
2013-10-06 09:05:00,72.3,72.0,29.96,NE,37,1.0,2.0,99,0.00,,,0.00,176.0,meteohub,2013-10-06 13:05:00,
2013-10-06 09:10:00,72.9,72.5,29.96,NE,37,0.0,3.0,99,0.00,,,0.00,197.0,meteohub,2013-10-06 13:10:00,
2013-10-06 09:15:00,73.2,72.9,29.96,NE,37,0.0,3.0,99,0.00,,,0.00,202.0,meteohub,2013-10-06 13:15:00,
2013-10-06 09:20:00,73.8,73.2,29.96,NE,37,1.0,1.0,98,0.00,,,0.00,232.0,meteohub,2013-10-06 13:20:00,
2013-10-06 09:25:00,73.9,73.6,29.96,NE,37,1.0,1.0,99,0.00,,,0.00,274.0,meteohub,2013-10-06 13:25:00,
2013-10-06 09:30:00,74.5,74.1,29.96,NE,37,0.0,3.0,99,0.00,,,0.00,336.0,meteohub,2013-10-06 13:30:00,
2013-10-06 09:35:00,74.8,74.5,29.96,NE,37,0.0,4.0,99,0.00,,,0.00,193.0,meteohub,2013-10-06 13:35:00,
2013-10-06 09:40:00,75.2,74.8,29.96,NE,37,0.0,4.0,99,0.00,,,0.00,420.0,meteohub,2013-10-06 13:40:00,
2013-10-06 09:45:00,75.7,75.4,29.96,NE,37,1.0,4.0,99,0.00,,,0.00,350.0,meteohub,2013-10-06 13:45:00,
2013-10-06 09:50:00,75.9,75.6,29.97,NE,37,2.0,5.0,99,0.00,,,0.00,475.0,meteohub,2013-10-06 13:50:00,
2013-10-06 09:55:00,76.5,76.1,29.97,NE,37,0.0,5.0,99,0.00,,,0.00,290.0,meteohub,2013-10-06 13:55:00,
2013-10-06 10:00:00,76.5,76.1,29.97,NE,37,0.0,5.0,99,0.00,,,0.00,552.0,meteohub,2013-10-06 14:00:00,
2013-10-06 10:05:00,77.0,76.6,29.97,NE,37,0.0,4.0,99,0.00,,,0.00,473.0,meteohub,2013-10-06 14:05:00,
2013-10-06 10:10:00,77.5,77.0,29.97,NE,42,0.0,4.0,98,0.00,,,0.00,192.0,meteohub,2013-10-06 14:10:00,
2013-10-06 10:15:00,78.4,77.9,29.97,ENE,69,0.0,5.0,98,0.00,,,0.00,573.0,meteohub,2013-10-06 14:15:00,
2013-10-06 10:20:00,79.2,78.6,29.96,East,90,0.0,5.0,98,0.00,,,0.00,647.0,meteohub,2013-10-06 14:20:00,
2013-10-06 10:25:00,80.1,78.8,29.97,SE,137,0.0,5.0,96,0.00,,,0.00,642.0,meteohub,2013-10-06 14:25:00,
2013-10-06 10:30:00,81.0,78.4,29.97,East,100,0.0,3.0,92,0.00,,,0.00,666.0,meteohub,2013-10-06 14:30:00,
2013-10-06 10:35:00,81.9,77.5,29.97,ENE,76,1.0,3.0,87,0.00,,,0.00,673.0,meteohub,2013-10-06 14:35:00,
2013-10-06 10:40:00,81.7,76.6,29.97,ENE,78,0.0,4.0,85,0.00,,,0.00,167.0,meteohub,2013-10-06 14:40:00,
2013-10-06 10:45:00,81.9,76.8,29.97,ENE,78,0.0,4.0,85,0.00,,,0.00,849.0,meteohub,2013-10-06 14:45:00,
2013-10-06 10:50:00,82.6,76.8,29.96,East,94,0.0,4.0,83,0.00,,,0.00,759.0,meteohub,2013-10-06 14:50:00,
2013-10-06 10:55:00,82.6,76.5,29.96,NE,40,0.0,5.0,82,0.00,,,0.00,243.0,meteohub,2013-10-06 14:55:00,
2013-10-06 11:00:00,82.8,75.9,29.96,SE,128,0.0,5.0,80,0.00,,,0.00,773.0,meteohub,2013-10-06 15:00:00,
2013-10-06 11:05:00,83.7,76.8,29.96,ENE,75,0.0,5.0,80,0.00,,,0.00,798.0,meteohub,2013-10-06 15:05:00,
2013-10-06 11:10:00,84.6,76.5,29.96,ESE,108,1.0,4.0,77,0.00,,,0.00,853.0,meteohub,2013-10-06 15:10:00,
2013-10-06 11:15:00,84.4,76.5,29.96,East,82,0.0,4.0,77,0.00,,,0.00,944.0,meteohub,2013-10-06 15:15:00,
2013-10-06 11:20:00,84.7,75.9,29.96,East,100,2.0,4.0,75,0.00,,,0.00,962.0,meteohub,2013-10-06 15:20:00,
2013-10-06 11:25:00,84.9,75.2,29.96,East,101,1.0,7.0,73,0.00,,,0.00,889.0,meteohub,2013-10-06 15:25:00,
2013-10-06 11:30:00,84.9,75.2,29.96,East,98,2.0,7.0,73,0.00,,,0.00,884.0,meteohub,2013-10-06 15:30:00,
2013-10-06 11:35:00,85.1,75.9,29.96,South,172,3.0,7.0,74,0.00,,,0.00,849.0,meteohub,2013-10-06 15:35:00,
2013-10-06 11:40:00,84.9,74.8,29.96,SSE,156,0.0,5.0,72,0.00,,,0.00,204.0,meteohub,2013-10-06 15:40:00,
2013-10-06 11:45:00,84.2,75.0,29.96,SE,133,1.0,5.0,74,0.00,,,0.00,306.0,meteohub,2013-10-06 15:45:00,
2013-10-06 11:50:00,83.8,75.0,29.96,East,88,0.0,5.0,75,0.00,,,0.00,362.0,meteohub,2013-10-06 15:50:00,
2013-10-06 11:56:00,83.7,75.2,29.96,SSE,152,3.0,4.0,76,0.00,,,0.00,580.0,meteohub,2013-10-06 15:56:00,
2013-10-06 12:01:00,83.7,75.7,29.96,ESE,113,1.0,5.0,77,0.00,,,0.00,408.0,meteohub,2013-10-06 16:01:00,
2013-10-06 12:06:00,83.7,75.2,29.96,ESE,121,0.0,5.0,76,0.00,,,0.00,592.0,meteohub,2013-10-06 16:06:00,
2013-10-06 12:11:00,84.0,75.2,29.95,NE,43,0.0,5.0,75,0.00,,,0.00,737.0,meteohub,2013-10-06 16:11:00,
2013-10-06 12:16:00,84.0,75.6,29.95,ESE,119,0.0,7.0,76,0.00,,,0.00,524.0,meteohub,2013-10-06 16:16:00,
2013-10-06 12:21:00,83.8,75.4,29.95,NE,49,2.0,8.0,76,0.00,,,0.00,413.0,meteohub,2013-10-06 16:21:00,
2013-10-06 12:26:00,83.8,75.0,29.95,East,88,0.0,8.0,75,0.00,,,0.00,399.0,meteohub,2013-10-06 16:26:00,
2013-10-06 12:31:00,83.7,75.2,29.95,SSE,154,2.0,8.0,76,0.00,,,0.00,431.0,meteohub,2013-10-06 16:31:00,
2013-10-06 12:36:00,83.5,75.0,29.95,SE,134,0.0,6.0,76,0.00,,,0.00,417.0,meteohub,2013-10-06 16:36:00,
2013-10-06 12:41:00,83.7,75.2,29.94,ESE,115,0.0,6.0,76,0.00,,,0.00,682.0,meteohub,2013-10-06 16:41:00,
2013-10-06 12:46:00,83.8,75.4,29.94,NNE,32,0.0,6.0,76,0.00,,,0.00,803.0,meteohub,2013-10-06 16:46:00,
2013-10-06 12:51:00,84.0,74.8,29.94,SE,129,0.0,5.0,74,0.00,,,0.00,392.0,meteohub,2013-10-06 16:51:00,
2013-10-06 12:56:00,83.8,74.7,29.94,SSW,198,2.0,7.0,74,0.00,,,0.00,397.0,meteohub,2013-10-06 16:56:00,
2013-10-06 13:01:00,83.5,74.7,29.93,SSE,156,0.0,7.0,75,0.00,,,0.00,415.0,meteohub,2013-10-06 17:01:00,
2013-10-06 13:06:00,83.7,75.7,29.93,East,94,5.0,7.0,77,0.00,,,0.00,413.0,meteohub,2013-10-06 17:06:00,
2013-10-06 13:11:00,83.8,75.4,29.93,ESE,117,3.0,7.0,76,0.00,,,0.00,606.0,meteohub,2013-10-06 17:11:00,
2013-10-06 13:16:00,84.0,75.2,29.93,ESE,109,0.0,6.0,75,0.00,,,0.00,698.0,meteohub,2013-10-06 17:16:00,
2013-10-06 13:21:00,84.2,73.4,29.92,East,92,5.0,6.0,70,0.00,,,0.00,445.0,meteohub,2013-10-06 17:21:00,
2013-10-06 13:26:00,84.2,73.8,29.92,ENE,76,0.0,6.0,71,0.00,,,0.00,1208.0,meteohub,2013-10-06 17:26:00,
2013-10-06 13:31:00,84.7,73.9,29.92,East,101,5.0,6.0,70,0.00,,,0.00,798.0,meteohub,2013-10-06 17:31:00,
2013-10-06 13:36:00,84.7,74.7,29.92,ESE,103,1.0,7.0,72,0.00,,,0.00,381.0,meteohub,2013-10-06 17:36:00,
2013-10-06 13:41:00,84.7,75.6,29.92,ESE,107,1.0,7.0,74,0.00,,,0.00,425.0,meteohub,2013-10-06 17:41:00,
2013-10-06 13:46:00,84.4,75.2,29.91,SE,133,1.0,7.0,74,0.00,,,0.00,599.0,meteohub,2013-10-06 17:46:00,
2013-10-06 13:51:00,84.7,75.6,29.91,South,186,3.0,4.0,74,0.00,,,0.00,649.0,meteohub,2013-10-06 17:51:00,
2013-10-06 13:56:00,84.6,75.4,29.91,SE,125,0.0,6.0,74,0.00,,,0.00,529.0,meteohub,2013-10-06 17:56:00,
2013-10-06 14:01:00,84.6,75.7,29.91,ESE,114,5.0,6.0,75,0.00,,,0.00,410.0,meteohub,2013-10-06 18:01:00,
2013-10-06 14:06:00,84.2,75.0,29.91,SE,144,2.0,6.0,74,0.00,,,0.00,522.0,meteohub,2013-10-06 18:06:00,
2013-10-06 14:11:00,84.4,75.2,29.90,East,88,0.0,6.0,74,0.00,,,0.00,647.0,meteohub,2013-10-06 18:11:00,
2013-10-06 14:16:00,84.4,75.6,29.90,NE,41,2.0,6.0,75,0.00,,,0.00,601.0,meteohub,2013-10-06 18:16:00,
2013-10-06 14:22:00,84.7,75.9,29.90,SSW,193,1.0,5.0,75,0.00,,,0.00,744.0,meteohub,2013-10-06 18:22:00,
2013-10-06 14:27:00,84.9,75.7,29.90,SSW,199,3.0,5.0,74,0.00,,,0.00,522.0,meteohub,2013-10-06 18:27:00,
2013-10-06 14:32:00,84.9,74.8,29.90,SE,124,1.0,5.0,72,0.00,,,0.00,455.0,meteohub,2013-10-06 18:32:00,
2013-10-06 14:37:00,84.7,75.2,29.90,SW,235,3.0,5.0,73,0.00,,,0.00,320.0,meteohub,2013-10-06 18:37:00,
2013-10-06 14:42:00,84.0,74.5,29.90,ESE,106,2.0,10.0,73,0.00,,,0.00,406.0,meteohub,2013-10-06 18:42:00,
2013-10-06 14:47:00,84.4,75.9,29.89,SE,142,2.0,10.0,76,0.00,,,0.00,1097.0,meteohub,2013-10-06 18:47:00,
2013-10-06 14:52:00,84.6,75.4,29.89,East,91,3.0,10.0,74,0.00,,,0.00,694.0,meteohub,2013-10-06 18:52:00,
2013-10-06 14:57:00,84.6,75.4,29.89,SE,144,0.0,8.0,74,0.00,,,0.00,606.0,meteohub,2013-10-06 18:57:00,
2013-10-06 15:02:00,84.7,75.9,29.89,East,100,0.0,7.0,75,0.00,,,0.00,401.0,meteohub,2013-10-06 19:02:00,
2013-10-06 15:07:00,84.7,75.9,29.89,ESE,102,0.0,7.0,75,0.00,,,0.00,285.0,meteohub,2013-10-06 19:07:00,
2013-10-06 15:12:00,84.4,75.9,29.88,SE,135,3.0,7.0,76,0.00,,,0.00,316.0,meteohub,2013-10-06 19:12:00,
2013-10-06 15:17:00,83.8,75.4,29.88,East,100,2.0,7.0,76,0.00,,,0.00,464.0,meteohub,2013-10-06 19:17:00,
2013-10-06 15:22:00,83.8,75.0,29.88,SE,134,0.0,7.0,75,0.00,,,0.00,338.0,meteohub,2013-10-06 19:22:00,
2013-10-06 15:27:00,83.8,74.7,29.88,South,190,0.0,6.0,74,0.00,,,0.00,248.0,meteohub,2013-10-06 19:27:00,
2013-10-06 15:32:00,83.8,75.0,29.88,ESE,102,0.0,9.0,75,0.00,,,0.00,313.0,meteohub,2013-10-06 19:32:00,
2013-10-06 15:37:00,83.7,75.2,29.87,East,101,0.0,7.0,76,0.00,,,0.00,360.0,meteohub,2013-10-06 19:37:00,
2013-10-06 15:42:00,83.8,75.4,29.87,ESE,117,0.0,5.0,76,0.00,,,0.00,733.0,meteohub,2013-10-06 19:42:00,
2013-10-06 15:47:00,84.0,75.2,29.87,SSE,153,3.0,8.0,75,0.00,,,0.00,696.0,meteohub,2013-10-06 19:47:00,
2013-10-06 15:52:00,84.0,75.6,29.87,ESE,109,3.0,8.0,76,0.00,,,0.00,181.0,meteohub,2013-10-06 19:52:00,
2013-10-06 15:57:00,83.8,75.0,29.86,ESE,116,3.0,9.0,75,0.00,,,0.00,592.0,meteohub,2013-10-06 19:57:00,
2013-10-06 16:02:00,84.0,74.8,29.86,SE,132,0.0,9.0,74,0.00,,,0.00,605.0,meteohub,2013-10-06 20:02:00,
2013-10-06 16:07:00,84.4,75.2,29.86,SE,130,1.0,9.0,74,0.00,,,0.00,566.0,meteohub,2013-10-06 20:07:00,
2013-10-06 16:12:00,84.2,75.4,29.86,East,81,1.0,9.0,75,0.00,,,0.00,141.0,meteohub,2013-10-06 20:12:00,
2013-10-06 16:17:00,84.4,75.2,29.86,SE,128,0.0,11.0,74,0.00,,,0.00,424.0,meteohub,2013-10-06 20:17:00,
2013-10-06 16:22:00,84.6,75.4,29.86,ESE,115,0.0,11.0,74,0.00,,,0.00,550.0,meteohub,2013-10-06 20:22:00,
2013-10-06 16:27:00,84.6,75.4,29.86,SSE,154,0.0,7.0,74,0.00,,,0.00,524.0,meteohub,2013-10-06 20:27:00,
2013-10-06 16:32:00,84.7,75.2,29.86,SE,140,3.0,8.0,73,0.00,,,0.00,499.0,meteohub,2013-10-06 20:32:00,
2013-10-06 16:37:00,84.6,75.7,29.86,NE,51,0.0,8.0,75,0.00,,,0.00,480.0,meteohub,2013-10-06 20:37:00,
2013-10-06 16:42:00,84.6,75.7,29.86,NE,51,1.0,8.0,75,0.00,,,0.00,490.0,meteohub,2013-10-06 20:42:00,
2013-10-06 16:47:00,84.4,75.9,29.86,SE,133,0.0,8.0,76,0.00,,,0.00,475.0,meteohub,2013-10-06 20:47:00,
2013-10-06 16:52:00,84.0,76.1,29.86,East,93,1.0,8.0,77,0.00,,,0.00,457.0,meteohub,2013-10-06 20:52:00,
2013-10-06 16:57:00,83.8,75.9,29.86,ENE,71,0.0,9.0,77,0.00,,,0.00,424.0,meteohub,2013-10-06 20:57:00,
2013-10-06 17:02:00,83.7,75.7,29.86,East,80,0.0,9.0,77,0.00,,,0.00,72.0,meteohub,2013-10-06 21:02:00,
2013-10-06 17:07:00,83.1,75.2,29.86,SE,140,2.0,9.0,77,0.00,,,0.00,413.0,meteohub,2013-10-06 21:07:00,
2013-10-06 17:12:00,82.8,75.2,29.86,ENE,77,1.0,9.0,78,0.00,,,0.00,253.0,meteohub,2013-10-06 21:12:00,
2013-10-06 17:17:00,82.6,75.4,29.86,East,87,1.0,9.0,79,0.00,,,0.00,93.0,meteohub,2013-10-06 21:17:00,
2013-10-06 17:22:00,82.4,75.2,29.86,ENE,74,1.0,9.0,79,0.00,,,0.00,76.0,meteohub,2013-10-06 21:22:00,
2013-10-06 17:26:00,82.2,75.4,29.86,ENE,59,3.0,9.0,80,0.00,,,0.00,97.0,meteohub,2013-10-06 21:26:00,
2013-10-06 17:31:00,82.0,75.6,29.86,NE,56,1.0,11.0,81,0.00,,,0.00,86.0,meteohub,2013-10-06 21:31:00,
2013-10-06 17:36:00,81.9,75.4,29.86,ENE,78,0.0,11.0,81,0.00,,,0.00,47.0,meteohub,2013-10-06 21:36:00,
2013-10-06 17:42:00,81.5,75.0,29.86,ESE,105,4.0,11.0,81,0.00,,,0.00,49.0,meteohub,2013-10-06 21:42:00,
2013-10-06 17:46:00,81.1,75.2,29.86,ENE,65,0.0,7.0,82,0.00,,,0.00,39.0,meteohub,2013-10-06 21:46:00,
2013-10-06 17:51:00,81.0,75.4,29.86,East,95,0.0,7.0,83,0.00,,,0.00,44.0,meteohub,2013-10-06 21:51:00,
2013-10-06 17:56:00,81.0,75.4,29.85,SE,146,1.0,7.0,83,0.00,,,0.00,60.0,meteohub,2013-10-06 21:56:00,
2013-10-06 18:02:00,81.0,75.7,29.85,NE,43,1.0,7.0,84,0.00,,,0.00,62.0,meteohub,2013-10-06 22:02:00,
2013-10-06 18:07:00,81.1,75.9,29.85,NE,38,2.0,7.0,84,0.00,,,0.00,83.0,meteohub,2013-10-06 22:07:00,
2013-10-06 18:12:00,81.0,76.1,29.85,ENE,61,0.0,8.0,85,0.00,,,0.00,49.0,meteohub,2013-10-06 22:12:00,
2013-10-06 18:17:00,80.8,75.9,29.86,East,86,0.0,8.0,85,0.00,,,0.00,42.0,meteohub,2013-10-06 22:17:00,
2013-10-06 18:22:00,80.4,75.6,29.86,East,79,0.0,5.0,85,0.00,,,0.00,40.0,meteohub,2013-10-06 22:22:00,
2013-10-06 18:27:00,80.2,75.4,29.86,East,79,0.0,3.0,85,0.00,,,0.00,35.0,meteohub,2013-10-06 22:27:00,
2013-10-06 18:32:00,80.1,75.6,29.86,East,80,0.0,3.0,86,0.00,,,0.00,32.0,meteohub,2013-10-06 22:32:00,
2013-10-06 18:37:00,79.9,75.4,29.86,East,80,0.0,1.0,86,0.00,,,0.00,26.0,meteohub,2013-10-06 22:37:00,
2013-10-06 18:42:00,79.7,75.2,29.86,East,80,0.0,1.0,86,0.00,,,0.00,21.0,meteohub,2013-10-06 22:42:00,
2013-10-06 18:47:00,79.3,75.2,29.86,East,80,0.0,1.0,87,0.00,,,0.00,14.0,meteohub,2013-10-06 22:47:00,
2013-10-06 18:52:00,79.2,75.0,29.86,East,79,0.0,1.0,87,0.00,,,0.00,9.0,meteohub,2013-10-06 22:52:00,
2013-10-06 18:57:00,79.0,75.2,29.86,East,80,0.0,0.0,88,0.00,,,0.00,5.0,meteohub,2013-10-06 22:57:00,
2013-10-06 19:02:00,78.6,74.8,29.86,East,79,0.0,0.0,88,0.00,,,0.00,0.0,meteohub,2013-10-06 23:02:00,
2013-10-06 19:07:00,78.4,74.8,29.86,East,80,0.0,0.0,89,0.00,,,0.00,0.0,meteohub,2013-10-06 23:07:00,
2013-10-06 19:12:00,78.3,74.7,29.86,East,80,0.0,1.0,89,0.00,,,0.00,0.0,meteohub,2013-10-06 23:12:00,
2013-10-06 19:17:00,78.1,74.5,29.86,East,80,0.0,1.0,89,0.00,,,0.00,0.0,meteohub,2013-10-06 23:17:00,
2013-10-06 19:22:00,77.7,74.5,29.86,East,79,0.0,0.0,90,0.00,,,0.00,0.0,meteohub,2013-10-06 23:22:00,
2013-10-06 19:27:00,77.5,74.3,29.86,East,80,0.0,0.0,90,0.00,,,0.00,0.0,meteohub,2013-10-06 23:27:00,
2013-10-06 19:32:00,77.4,74.1,29.86,East,80,0.0,0.0,90,0.00,,,0.00,0.0,meteohub,2013-10-06 23:32:00,
2013-10-06 19:37:00,77.4,74.5,29.86,East,80,0.0,0.0,91,0.00,,,0.00,0.0,meteohub,2013-10-06 23:37:00,
2013-10-06 19:42:00,77.2,74.3,29.86,East,80,0.0,0.0,91,0.00,,,0.00,0.0,meteohub,2013-10-06 23:42:00,
2013-10-06 19:47:00,76.8,74.3,29.86,East,79,0.0,0.0,92,0.00,,,0.00,0.0,meteohub,2013-10-06 23:47:00,
2013-10-06 19:52:00,76.6,74.1,29.86,East,79,0.0,0.0,92,0.00,,,0.00,0.0,meteohub,2013-10-06 23:52:00,
2013-10-06 19:57:00,76.5,73.9,29.86,East,80,0.0,0.0,92,0.00,,,0.00,0.0,meteohub,2013-10-06 23:57:00,
2013-10-06 20:02:00,76.1,73.9,29.86,East,80,0.0,0.0,93,0.00,,,0.00,0.0,meteohub,2013-10-07 00:02:00,
2013-10-06 20:07:00,75.7,73.6,29.86,East,80,0.0,0.0,93,0.00,,,0.00,0.0,meteohub,2013-10-07 00:07:00,
2013-10-06 20:12:00,75.7,73.6,29.86,East,80,0.0,0.0,93,0.00,,,0.00,0.0,meteohub,2013-10-07 00:12:00,
2013-10-06 20:17:00,75.6,73.4,29.86,East,80,0.0,0.0,93,0.00,,,0.00,0.0,meteohub,2013-10-07 00:17:00,
2013-10-06 20:22:00,75.4,73.6,29.86,East,80,0.0,0.0,94,0.00,,,0.00,0.0,meteohub,2013-10-07 00:22:00,
2013-10-06 20:27:00,75.2,73.4,29.86,East,79,0.0,0.0,94,0.00,,,0.00,0.0,meteohub,2013-10-07 00:27:00,
2013-10-06 20:32:00,75.2,73.4,29.86,East,79,0.0,0.0,94,0.00,,,0.00,0.0,meteohub,2013-10-07 00:32:00,
2013-10-06 20:37:00,75.0,73.4,29.86,East,80,0.0,0.0,95,0.00,,,0.00,0.0,meteohub,2013-10-07 00:37:00,
2013-10-06 20:42:00,75.0,73.4,29.86,East,80,0.0,0.0,95,0.00,,,0.00,0.0,meteohub,2013-10-07 00:42:00,
2013-10-06 20:47:00,74.8,73.2,29.86,East,80,0.0,0.0,95,0.00,,,0.00,0.0,meteohub,2013-10-07 00:47:00,
2013-10-06 20:52:00,74.8,73.2,29.87,East,79,0.0,0.0,95,0.00,,,0.00,0.0,meteohub,2013-10-07 00:52:00,
2013-10-06 20:57:00,74.8,73.2,29.87,East,80,0.0,0.0,95,0.00,,,0.00,0.0,meteohub,2013-10-07 00:57:00,
2013-10-06 21:02:00,74.8,73.2,29.87,East,79,0.0,0.0,95,0.00,,,0.00,0.0,meteohub,2013-10-07 01:02:00,
2013-10-06 21:07:00,74.8,73.2,29.87,East,79,0.0,0.0,95,0.00,,,0.00,0.0,meteohub,2013-10-07 01:07:00,
2013-10-06 21:12:00,74.7,73.2,29.87,East,80,0.0,0.0,95,0.00,,,0.00,0.0,meteohub,2013-10-07 01:12:00,
2013-10-06 21:17:00,74.7,73.4,29.87,East,80,0.0,0.0,96,0.00,,,0.00,0.0,meteohub,2013-10-07 01:17:00,
2013-10-06 21:22:00,74.7,73.4,29.86,East,80,0.0,0.0,96,0.00,,,0.00,0.0,meteohub,2013-10-07 01:22:00,
2013-10-06 21:27:00,74.5,73.2,29.86,East,79,0.0,0.0,96,0.00,,,0.00,0.0,meteohub,2013-10-07 01:27:00,
2013-10-06 21:32:00,74.7,73.4,29.86,East,80,0.0,0.0,96,0.00,,,0.00,0.0,meteohub,2013-10-07 01:32:00,
2013-10-06 21:37:00,75.0,73.8,29.86,East,79,0.0,1.0,96,0.00,,,0.00,0.0,meteohub,2013-10-07 01:37:00,
2013-10-06 21:42:00,75.4,74.1,29.86,East,80,0.0,1.0,96,0.00,,,0.00,0.0,meteohub,2013-10-07 01:42:00,
2013-10-06 21:47:00,75.6,74.3,29.86,East,80,0.0,1.0,96,0.00,,,0.00,0.0,meteohub,2013-10-07 01:47:00,
2013-10-06 21:52:00,75.6,74.3,29.86,East,80,0.0,1.0,96,0.00,,,0.00,0.0,meteohub,2013-10-07 01:52:00,
2013-10-06 21:58:00,75.7,74.8,29.86,East,79,0.0,1.0,97,0.00,,,0.00,0.0,meteohub,2013-10-07 01:58:00,
2013-10-06 22:03:00,75.7,74.5,29.86,East,79,0.0,1.0,96,0.00,,,0.00,0.0,meteohub,2013-10-07 02:03:00,
2013-10-06 22:08:00,75.7,74.5,29.86,East,79,0.0,1.0,96,0.00,,,0.00,0.0,meteohub,2013-10-07 02:08:00,
2013-10-06 22:13:00,75.9,74.7,29.86,East,80,0.0,1.0,96,0.00,,,0.00,0.0,meteohub,2013-10-07 02:13:00,
2013-10-06 22:18:00,75.9,74.7,29.86,East,80,0.0,2.0,96,0.00,,,0.00,0.0,meteohub,2013-10-07 02:18:00,
2013-10-06 22:23:00,75.9,74.7,29.86,East,80,0.0,2.0,96,0.00,,,0.00,0.0,meteohub,2013-10-07 02:23:00,
2013-10-06 22:28:00,75.9,74.7,29.86,East,80,0.0,2.0,96,0.00,,,0.00,0.0,meteohub,2013-10-07 02:28:00,
2013-10-06 22:33:00,75.9,74.7,29.86,East,80,0.0,1.0,96,0.00,,,0.00,0.0,meteohub,2013-10-07 02:33:00,
2013-10-06 22:38:00,75.7,74.5,29.86,East,79,0.0,1.0,96,0.00,,,0.00,0.0,meteohub,2013-10-07 02:38:00,
2013-10-06 22:43:00,75.9,74.7,29.86,East,80,0.0,0.0,96,0.00,,,0.00,0.0,meteohub,2013-10-07 02:43:00,
2013-10-06 22:48:00,75.9,74.7,29.86,East,80,0.0,0.0,96,0.00,,,0.00,0.0,meteohub,2013-10-07 02:48:00,
2013-10-06 22:53:00,75.9,74.7,29.86,East,79,0.0,1.0,96,0.00,,,0.00,0.0,meteohub,2013-10-07 02:53:00,
2013-10-06 22:58:00,76.1,74.8,29.86,East,80,0.0,1.0,96,0.00,,,0.00,0.0,meteohub,2013-10-07 02:58:00,
2013-10-06 23:03:00,76.3,75.0,29.86,East,80,0.0,1.0,96,0.00,,,0.00,0.0,meteohub,2013-10-07 03:03:00,
2013-10-06 23:08:00,76.3,75.0,29.86,East,79,0.0,1.0,96,0.00,,,0.00,0.0,meteohub,2013-10-07 03:08:00,
2013-10-06 23:13:00,76.5,75.2,29.86,East,80,1.0,1.0,96,0.00,,,0.00,0.0,meteohub,2013-10-07 03:13:00,
2013-10-06 23:18:00,76.6,75.4,29.86,East,79,0.0,1.0,96,0.00,,,0.00,0.0,meteohub,2013-10-07 03:18:00,
2013-10-06 23:23:00,76.6,75.4,29.86,East,80,0.0,2.0,96,0.00,,,0.00,0.0,meteohub,2013-10-07 03:23:00,
2013-10-06 23:28:00,76.8,75.6,29.86,East,80,0.0,2.0,96,0.00,,,0.00,0.0,meteohub,2013-10-07 03:28:00,
2013-10-06 23:33:00,77.0,75.4,29.86,ESE,121,0.0,3.0,95,0.00,,,0.00,0.0,meteohub,2013-10-07 03:33:00,
2013-10-06 23:38:00,77.2,75.6,29.86,ESE,121,0.0,3.0,95,0.00,,,0.00,0.0,meteohub,2013-10-07 03:38:00,
2013-10-06 23:43:00,77.2,75.6,29.86,East,91,0.0,3.0,95,0.00,,,0.00,0.0,meteohub,2013-10-07 03:43:00,
2013-10-06 23:48:00,77.4,75.7,29.86,East,101,0.0,3.0,95,0.00,,,0.00,0.0,meteohub,2013-10-07 03:48:00,
2013-10-06 23:53:00,77.4,75.6,29.85,SE,130,0.0,3.0,94,0.00,,,0.00,0.0,meteohub,2013-10-07 03:53:00,
2013-10-06 23:58:00,77.4,75.6,29.85,ESE,112,0.0,3.0,94,0.00,,,0.00,0.0,meteohub,2013-10-07 03:58:00,